{"data":{"norad_id":45054,"intl_designator":"2020-006L","name":"STARLINK-1156","alt_names":[],"object_type":"PAYLOAD","status":"ACTIVE","operator":null,"country":"US","launch_date":"2020-01-29","launch_site_code":"AFETR","launch_vehicle":null,"mission":null,"orbit_class":"UNKNOWN","rcs_meters":null,"size_class":null,"mass_kg":null,"dimensions":null,"purposes":["comms"],"wikipedia_slug":null,"has_3d_model":false,"image_url":null,"decayed_at":null,"tle_current":{"epoch":"2026-05-24T20:40:12.902880Z","epoch_age_seconds":97598,"freshness":"FRESH","line1":"1 45054U 20006L   26144.86126045  .00039816  00000+0  12081-2 0  9995","line2":"2 45054  53.1587 286.6040 0002264 308.7242  51.3558 15.33742924348210","mean_motion":15.33742924,"eccentricity":0.0002264,"inclination_deg":53.1587,"raan_deg":286.604,"arg_perigee_deg":308.7242,"mean_anomaly_deg":51.3558,"bstar":0.0012081,"rev_number":34821,"period_min":93.887963717184,"perigee_km":463.10769720963,"apogee_km":466.20611429016,"semimajor_km":6842.7939057499,"source":"CELESTRAK","updated_at":"2026-05-25T13:38:16.377514Z"}}}